﻿測定場所 (Monitoring sites),日付 (Measurement date),時間 (Measurement time),線量率 最大値 (max) μGy/h,線量率 最小値 (min) μGy/h,線量率 平均値 (average) μGy/h,
江戸川 (Edogawa),2014-03-02,23:01～24:00,0.0826,0.0721,0.0771,
江戸川 (Edogawa),2014-03-02,22:01～23:00,0.0799,0.0703,0.0749,
江戸川 (Edogawa),2014-03-02,21:01～22:00,0.0834,0.0728,0.0779,
江戸川 (Edogawa),2014-03-02,20:01～21:00,0.0898,0.0769,0.0823,
江戸川 (Edogawa),2014-03-02,19:01～20:00,0.0910,0.0773,0.0851,
江戸川 (Edogawa),2014-03-02,18:01～19:00,0.0968,0.0820,0.0887,
江戸川 (Edogawa),2014-03-02,17:01～18:00,0.0927,0.0833,0.0881,
江戸川 (Edogawa),2014-03-02,16:01～17:00,0.0896,0.0781,0.0843,
江戸川 (Edogawa),2014-03-02,15:01～16:00,0.0895,0.0780,0.0827,
江戸川 (Edogawa),2014-03-02,14:01～15:00,0.0864,0.0732,0.0808,
江戸川 (Edogawa),2014-03-02,13:01～14:00,0.0881,0.0741,0.0807,
江戸川 (Edogawa),2014-03-02,12:01～13:00,0.0903,0.0774,0.0833,
江戸川 (Edogawa),2014-03-02,11:01～12:00,0.0894,0.0738,0.0819,
江戸川 (Edogawa),2014-03-02,10:01～11:00,0.0833,0.0712,0.0747,
江戸川 (Edogawa),2014-03-02,09:01～10:00,0.0811,0.0718,0.0754,
江戸川 (Edogawa),2014-03-02,08:01～09:00,0.0906,0.0745,0.0818,
江戸川 (Edogawa),2014-03-02,07:01～08:00,0.0949,0.0806,0.0873,
江戸川 (Edogawa),2014-03-02,06:01～07:00,0.100,0.0790,0.0880,
江戸川 (Edogawa),2014-03-02,05:01～06:00,0.0999,0.0879,0.0939,
江戸川 (Edogawa),2014-03-02,04:01～05:00,0.0982,0.0859,0.0921,
江戸川 (Edogawa),2014-03-02,03:01～04:00,0.0980,0.0864,0.0930,
江戸川 (Edogawa),2014-03-02,02:01～03:00,0.0987,0.0840,0.0901,
江戸川 (Edogawa),2014-03-02,01:01～02:00,0.0901,0.0729,0.0802,
江戸川 (Edogawa),2014-03-02,00:01～01:00,0.0837,0.0721,0.0760,
江戸川 (Edogawa),2014-03-01,23:01～24:00,0.0790,0.0717,0.0748,
江戸川 (Edogawa),2014-03-01,22:01～23:00,0.0812,0.0704,0.0748,
江戸川 (Edogawa),2014-03-01,21:01～22:00,0.0824,0.0719,0.0765,
江戸川 (Edogawa),2014-03-01,20:01～21:00,0.0915,0.0729,0.0821,
江戸川 (Edogawa),2014-03-01,19:01～20:00,0.0979,0.0829,0.0911,
江戸川 (Edogawa),2014-03-01,18:01～19:00,0.0923,0.0733,0.0815,
江戸川 (Edogawa),2014-03-01,17:01～18:00,0.0815,0.0728,0.0760,
江戸川 (Edogawa),2014-03-01,16:01～17:00,0.0808,0.0722,0.0757,
江戸川 (Edogawa),2014-03-01,15:01～16:00,0.0811,0.0712,0.0748,
江戸川 (Edogawa),2014-03-01,14:01～15:00,0.0835,0.0714,0.0754,
江戸川 (Edogawa),2014-03-01,13:01～14:00,0.0803,0.0716,0.0749,
江戸川 (Edogawa),2014-03-01,12:01～13:00,0.0839,0.0717,0.0766,
江戸川 (Edogawa),2014-03-01,11:01～12:00,0.0846,0.0728,0.0785,
江戸川 (Edogawa),2014-03-01,10:01～11:00,0.0848,0.0730,0.0781,
江戸川 (Edogawa),2014-03-01,09:01～10:00,0.0832,0.0715,0.0763,
江戸川 (Edogawa),2014-03-01,08:01～09:00,0.0826,0.0714,0.0756,
江戸川 (Edogawa),2014-03-01,07:01～08:00,0.0835,0.0708,0.0757,
江戸川 (Edogawa),2014-03-01,06:01～07:00,0.0818,0.0725,0.0763,
江戸川 (Edogawa),2014-03-01,05:01～06:00,0.0787,0.0718,0.0750,
江戸川 (Edogawa),2014-03-01,04:01～05:00,0.0805,0.0719,0.0753,
江戸川 (Edogawa),2014-03-01,03:01～04:00,0.0799,0.0719,0.0754,
江戸川 (Edogawa),2014-03-01,02:01～03:00,0.0800,0.0711,0.0750,
江戸川 (Edogawa),2014-03-01,01:01～02:00,0.0799,0.0723,0.0750,
江戸川 (Edogawa),2014-03-01,00:01～01:00,0.0819,0.0719,0.0755,
江戸川 (Edogawa),2014-02-28,23:01～24:00,0.0790,0.0722,0.0746,
江戸川 (Edogawa),2014-02-28,22:01～23:00,0.0813,0.0719,0.0749,
江戸川 (Edogawa),2014-02-28,21:01～22:00,0.0864,0.0706,0.0746,
江戸川 (Edogawa),2014-02-28,20:01～21:00,0.0810,0.0717,0.0744,
江戸川 (Edogawa),2014-02-28,19:01～20:00,0.0799,0.0717,0.0744,
江戸川 (Edogawa),2014-02-28,18:01～19:00,0.0819,0.0717,0.0756,
江戸川 (Edogawa),2014-02-28,17:01～18:00,0.0810,0.0706,0.0753,
江戸川 (Edogawa),2014-02-28,16:01～17:00,0.0821,0.0702,0.0752,
江戸川 (Edogawa),2014-02-28,15:01～16:00,0.0814,0.0717,0.0755,
江戸川 (Edogawa),2014-02-28,14:01～15:00,0.0827,0.0720,0.0755,
江戸川 (Edogawa),2014-02-28,13:01～14:00,0.0833,0.0728,0.0755,
江戸川 (Edogawa),2014-02-28,12:01～13:00,0.0811,0.0713,0.0760,
江戸川 (Edogawa),2014-02-28,11:01～12:00,0.0836,0.0697,0.0747,
江戸川 (Edogawa),2014-02-28,10:01～11:00,0.0792,0.0696,0.0748,
江戸川 (Edogawa),2014-02-28,09:01～10:00,0.0817,0.0709,0.0743,
江戸川 (Edogawa),2014-02-28,08:01～09:00,0.0802,0.0694,0.0746,
江戸川 (Edogawa),2014-02-28,07:01～08:00,0.0809,0.0711,0.0746,
江戸川 (Edogawa),2014-02-28,06:01～07:00,0.0818,0.0717,0.0746,
江戸川 (Edogawa),2014-02-28,05:01～06:00,0.0826,0.0719,0.0762,
江戸川 (Edogawa),2014-02-28,04:01～05:00,0.0888,0.0733,0.0810,
江戸川 (Edogawa),2014-02-28,03:01～04:00,0.0932,0.0798,0.0871,
江戸川 (Edogawa),2014-02-28,02:01～03:00,0.0895,0.0796,0.0842,
江戸川 (Edogawa),2014-02-28,01:01～02:00,0.0894,0.0770,0.0836,
江戸川 (Edogawa),2014-02-28,00:01～01:00,0.0851,0.0742,0.0786,
江戸川 (Edogawa),2014-02-27,23:01～24:00,0.0874,0.0729,0.0775,
江戸川 (Edogawa),2014-02-27,22:01～23:00,0.0818,0.0724,0.0769,
江戸川 (Edogawa),2014-02-27,21:01～22:00,0.0838,0.0741,0.0783,
江戸川 (Edogawa),2014-02-27,20:01～21:00,0.0835,0.0730,0.0785,
江戸川 (Edogawa),2014-02-27,19:01～20:00,0.0869,0.0742,0.0790,
江戸川 (Edogawa),2014-02-27,18:01～19:00,0.0837,0.0722,0.0768,
江戸川 (Edogawa),2014-02-27,17:01～18:00,0.0825,0.0719,0.0760,
江戸川 (Edogawa),2014-02-27,16:01～17:00,0.0826,0.0727,0.0771,
江戸川 (Edogawa),2014-02-27,15:01～16:00,0.0834,0.0725,0.0772,
江戸川 (Edogawa),2014-02-27,14:01～15:00,0.0832,0.0734,0.0776,
江戸川 (Edogawa),2014-02-27,13:01～14:00,0.0814,0.0726,0.0766,
江戸川 (Edogawa),2014-02-27,12:01～13:00,0.0829,0.0725,0.0766,
江戸川 (Edogawa),2014-02-27,11:01～12:00,0.0850,0.0731,0.0784,
江戸川 (Edogawa),2014-02-27,10:01～11:00,0.0841,0.0740,0.0794,
江戸川 (Edogawa),2014-02-27,09:01～10:00,0.0845,0.0731,0.0791,
江戸川 (Edogawa),2014-02-27,08:01～09:00,0.0842,0.0723,0.0775,
江戸川 (Edogawa),2014-02-27,07:01～08:00,0.0832,0.0727,0.0776,
江戸川 (Edogawa),2014-02-27,06:01～07:00,0.0830,0.0732,0.0772,
江戸川 (Edogawa),2014-02-27,05:01～06:00,0.0847,0.0715,0.0771,
江戸川 (Edogawa),2014-02-27,04:01～05:00,0.0821,0.0726,0.0772,
江戸川 (Edogawa),2014-02-27,03:01～04:00,0.0845,0.0703,0.0776,
江戸川 (Edogawa),2014-02-27,02:01～03:00,0.0828,0.0729,0.0769,
江戸川 (Edogawa),2014-02-27,01:01～02:00,0.0825,0.0722,0.0770,
江戸川 (Edogawa),2014-02-27,00:01～01:00,0.0808,0.0711,0.0771,
江戸川 (Edogawa),2014-02-26,23:01～24:00,0.0819,0.0722,0.0758,
江戸川 (Edogawa),2014-02-26,22:01～23:00,0.0814,0.0714,0.0761,
江戸川 (Edogawa),2014-02-26,21:01～22:00,0.0811,0.0710,0.0759,
江戸川 (Edogawa),2014-02-26,20:01～21:00,0.0845,0.0730,0.0768,
江戸川 (Edogawa),2014-02-26,19:01～20:00,0.0830,0.0721,0.0763,
江戸川 (Edogawa),2014-02-26,18:01～19:00,0.0830,0.0723,0.0769,
江戸川 (Edogawa),2014-02-26,17:01～18:00,0.0829,0.0723,0.0768,
江戸川 (Edogawa),2014-02-26,16:01～17:00,0.0813,0.0728,0.0770,
江戸川 (Edogawa),2014-02-26,15:01～16:00,0.0821,0.0711,0.0768,
江戸川 (Edogawa),2014-02-26,14:01～15:00,0.0828,0.0682,0.0767,
江戸川 (Edogawa),2014-02-26,13:01～14:00,0.0836,0.0693,0.0762,
江戸川 (Edogawa),2014-02-26,12:01～13:00,0.0825,0.0719,0.0783,
江戸川 (Edogawa),2014-02-26,11:01～12:00,0.0833,0.0723,0.0772,
江戸川 (Edogawa),2014-02-26,10:01～11:00,0.0822,0.0737,0.0777,
江戸川 (Edogawa),2014-02-26,09:01～10:00,0.0834,0.0720,0.0766,
江戸川 (Edogawa),2014-02-26,08:01～09:00,0.0822,0.0721,0.0759,
江戸川 (Edogawa),2014-02-26,07:01～08:00,0.0811,0.0723,0.0757,
江戸川 (Edogawa),2014-02-26,06:01～07:00,0.0811,0.0722,0.0757,
江戸川 (Edogawa),2014-02-26,05:01～06:00,0.0823,0.0719,0.0761,
江戸川 (Edogawa),2014-02-26,04:01～05:00,0.0813,0.0712,0.0757,
江戸川 (Edogawa),2014-02-26,03:01～04:00,0.0809,0.0719,0.0761,
江戸川 (Edogawa),2014-02-26,02:01～03:00,0.0821,0.0720,0.0760,
江戸川 (Edogawa),2014-02-26,01:01～02:00,0.0823,0.0718,0.0759,
江戸川 (Edogawa),2014-02-26,00:01～01:00,0.0814,0.0717,0.0759,
江戸川 (Edogawa),2014-02-25,23:01～24:00,0.0830,0.0725,0.0761,
江戸川 (Edogawa),2014-02-25,22:01～23:00,0.0824,0.0724,0.0764,
江戸川 (Edogawa),2014-02-25,21:01～22:00,0.0822,0.0724,0.0762,
江戸川 (Edogawa),2014-02-25,20:01～21:00,0.0814,0.0723,0.0766,
江戸川 (Edogawa),2014-02-25,19:01～20:00,0.0817,0.0708,0.0759,
江戸川 (Edogawa),2014-02-25,18:01～19:00,0.0820,0.0729,0.0764,
江戸川 (Edogawa),2014-02-25,17:01～18:00,0.0807,0.0724,0.0761,
江戸川 (Edogawa),2014-02-25,16:01～17:00,0.0847,0.0730,0.0770,
江戸川 (Edogawa),2014-02-25,15:01～16:00,0.0809,0.0727,0.0773,
江戸川 (Edogawa),2014-02-25,14:01～15:00,0.0820,0.0715,0.0779,
江戸川 (Edogawa),2014-02-25,13:01～14:00,0.0833,0.0713,0.0779,
江戸川 (Edogawa),2014-02-25,12:01～13:00,0.0851,0.0724,0.0781,
江戸川 (Edogawa),2014-02-25,11:01～12:00,0.0840,0.0729,0.0778,
江戸川 (Edogawa),2014-02-25,10:01～11:00,0.0840,0.0733,0.0776,
江戸川 (Edogawa),2014-02-25,09:01～10:00,0.0850,0.0727,0.0771,
江戸川 (Edogawa),2014-02-25,08:01～09:00,0.0832,0.0722,0.0766,
江戸川 (Edogawa),2014-02-25,07:01～08:00,0.0822,0.0721,0.0757,
江戸川 (Edogawa),2014-02-25,06:01～07:00,0.0809,0.0724,0.0758,
江戸川 (Edogawa),2014-02-25,05:01～06:00,0.0804,0.0708,0.0755,
江戸川 (Edogawa),2014-02-25,04:01～05:00,0.0808,0.0705,0.0756,
江戸川 (Edogawa),2014-02-25,03:01～04:00,0.0821,0.0716,0.0762,
江戸川 (Edogawa),2014-02-25,02:01～03:00,0.0800,0.0715,0.0753,
江戸川 (Edogawa),2014-02-25,01:01～02:00,0.0813,0.0721,0.0758,
江戸川 (Edogawa),2014-02-25,00:01～01:00,0.0827,0.0707,0.0755,
江戸川 (Edogawa),2014-02-24,23:01～24:00,0.0807,0.0718,0.0757,
江戸川 (Edogawa),2014-02-24,22:01～23:00,0.0813,0.0715,0.0753,
江戸川 (Edogawa),2014-02-24,21:01～22:00,0.0817,0.0731,0.0761,
江戸川 (Edogawa),2014-02-24,20:01～21:00,0.0812,0.0726,0.0756,
江戸川 (Edogawa),2014-02-24,19:01～20:00,0.0819,0.0702,0.0755,
江戸川 (Edogawa),2014-02-24,18:01～19:00,0.0809,0.0720,0.0755,
江戸川 (Edogawa),2014-02-24,17:01～18:00,0.0822,0.0714,0.0762,
江戸川 (Edogawa),2014-02-24,16:01～17:00,0.0805,0.0707,0.0763,
江戸川 (Edogawa),2014-02-24,15:01～16:00,0.0824,0.0735,0.0765,
江戸川 (Edogawa),2014-02-24,14:01～15:00,0.0819,0.0730,0.0764,
江戸川 (Edogawa),2014-02-24,13:01～14:00,0.0840,0.0720,0.0768,
江戸川 (Edogawa),2014-02-24,12:01～13:00,0.0816,0.0723,0.0764,
江戸川 (Edogawa),2014-02-24,11:01～12:00,0.0849,0.0725,0.0763,
江戸川 (Edogawa),2014-02-24,10:01～11:00,0.0834,0.0723,0.0761,
江戸川 (Edogawa),2014-02-24,09:01～10:00,0.0850,0.0708,0.0762,
江戸川 (Edogawa),2014-02-24,08:01～09:00,0.0842,0.0722,0.0763,
江戸川 (Edogawa),2014-02-24,07:01～08:00,0.0840,0.0721,0.0757,
江戸川 (Edogawa),2014-02-24,06:01～07:00,0.0809,0.0721,0.0760,
江戸川 (Edogawa),2014-02-24,05:01～06:00,0.0821,0.0719,0.0753,
江戸川 (Edogawa),2014-02-24,04:01～05:00,0.0808,0.0714,0.0757,
江戸川 (Edogawa),2014-02-24,03:01～04:00,0.0828,0.0722,0.0760,
江戸川 (Edogawa),2014-02-24,02:01～03:00,0.0814,0.0708,0.0753,
江戸川 (Edogawa),2014-02-24,01:01～02:00,0.0804,0.0710,0.0755,
江戸川 (Edogawa),2014-02-24,00:01～01:00,0.0805,0.0720,0.0753,
